Regional Weather Roundup
Issued by NWS

Home | Current Version | Previous Version | Text Only | Print | Product List | Glossary On
Versions: 1 2 3 4 5 6 7 8 9 10 11 12 13 14 15 16 17 18 19 20 21 22 23 24 25 26 27 28 29 30 31 32 33 34 35 36 37 38 39 40 41 42 43 44 45 46 47 48 49 50
000
ASUS46 KSTO 271804
RWRCA

NORTHERN AND CENTRAL CA REGIONAL WEATHER ROUNDUP
NATIONAL WEATHER SERVICE SACRAMENTO CA
1100 AM PDT FRI MAR 27 2015

NOTE: FAIR INDICATES FEW OR NO CLOUDS BELOW 12,000 FEET WITH NO
SIGNIFICANT WEATHER AND/OR OBSTRUCTIONS TO VISIBILITY.

CAZ001-003-271900-
NORTHWEST AREA

CITY           SKY/WX    TMP DP  RH WIND       PRES   REMARKS
CRESCENT CITY  CLOUDY    53  52  96 S7        30.21R
UKIAH          FAIR      66  50  56 VRB3      30.14S
$$

CAZ006-505>513-271900-
BAY AREA

CITY           SKY/WX    TMP DP  RH WIND       PRES   REMARKS
SANTA ROSA     FAIR      59  52  77 S7        30.16R
SAN RAFAEL     N/A       52  MM  MM MISG
NAPA           FAIR      59  53  80 S9        30.16S
CONCORD        FAIR      66  55  67 N10       30.15R
OAKLAND CITY   N/A       54  MM  MM MISG
OAKLAND        FAIR      58  51  78 W10       30.18R
SAN FRAN CITY  N/A       54  MM  94 MISG
SAN FRAN ARPT  FAIR      59  55  87 W16       30.17R
LIVERMORE      FAIR      69  55  60 SW3       30.14S
HAYWARD        FAIR      63  52  67 W9        30.17R
REDWOOD CITY   N/A       MM  MM  MM MISG
MOFFETT ARPT   FAIR      62  54  74 N10       30.18R
SAN JOSE ARPT  FAIR      64  55  72 NW5       30.17R
$$
CAZ034-037-514>518-271900-
CENTRAL COAST

CITY           SKY/WX    TMP DP  RH WIND       PRES   REMARKS
WATSONVILLE    FAIR      64  55  72 CALM      30.16F
SALINAS        FAIR      63  50  62 CALM      30.16R
MONTEREY       FAIR      56  51  84 W7        30.17S
SAN LUIS OBISP FAIR      66  52  60 W6        30.11S
SANTA MARIA    FAIR      66  50  56 NW6       30.12R
$$
CAZ015-016-271900-
NORTHERN SACRAMENTO VALLEY

CITY           SKY/WX    TMP DP  RH WIND       PRES   REMARKS
REDDING        FAIR      71  52  50 NE3       30.12S
RED BLUFF      FAIR      71  52  50 N3        30.13S
OROVILLE       FAIR      73  51  46 CALM      30.13S
$$
CAZ016>018-271900-
SOUTHERN SACRAMENTO VALLEY

CITY           SKY/WX    TMP DP  RH WIND       PRES   REMARKS
AUBURN         FAIR      75  39  27 CALM      30.16R
LINCOLN        FAIR      70  50  49 W3        30.12R
MARYSVILLE     FAIR      72  51  47 CALM      30.12S
SAC INTL ARPT  FAIR      71  55  56 CALM      30.12S
MATHER AIRPORT SUNNY     72  48  43 SW5       30.13R
DOWNTOWN SAC   N/A       74  MM  MM MISG
SAC EXEC ARPT  FAIR      72  53  51 CALM      30.13R
VACAVILLE      FAIR      75  53  46 CALM      30.14R
$$
CAZ019>021-271900-
SAN JOAQUIN VALLEY

CITY           SKY/WX    TMP DP  RH WIND       PRES   REMARKS
STOCKTON       FAIR      74  54  49 W7        30.12R
MODESTO        FAIR      75  53  46 N6        30.12R
MERCED         FAIR      72  51  47 W5        30.12S
LEMOORE        FAIR      79  49  34 NW5       30.12S
FRESNO         FAIR      76  44  32 CALM      30.13S
HANFORD        FAIR      75  51  43 CALM      30.13S
PORTERVILLE    FAIR      79  45  29 SW5       30.13S
BAKERSFIELD    FAIR      76  43  30 CALM      30.12S
$$
CAZ011-012-071-271900-
NORTHERN MOUNTAINS

CITY           SKY/WX    TMP DP  RH WIND       PRES   REMARKS
YREKA          FAIR      62  46  55 E3        30.16S
MOUNT SHASTA   FAIR      67  42  40 VRB6      30.18S
ALTURAS        FAIR      65  39  38 S5        30.21F
$$
CAZ011-012-071-271900-
SIERRA NEVADA MTNS

CITY           SKY/WX    TMP DP  RH WIND       PRES   REMARKS
BLUE CANYON    FAIR      62  27  26 VRB7      30.32R
TRUCKEE        SUNNY     55  41  58 CALM      30.32F
TAHOE VLY ARPT FAIR      61  34  36 MISG      30.33F
MAMMOTH LAKES  FAIR      61  23  23 SE7       30.38S
$$



USA.gov is the U.S. government's official web portal to all federal, state and local government web resources and services.